When you browse on this site, cookies collect data to enhance your experience and personalize the content and advertising you see.
Visit our Privacy Policy to learn more. By continuing to use the site, you agree to this use of cookies and data.
  • In Romania
  • List of Countries
  • For 7 days
  • Water Temperature
  • Satellite Maps
  • Weather Map
  • Weather Widgets
  • user-avatar
    Login

    Hourly Weather Brest

    Today, 18 June, Tuesday

    Time Temperature Precipitation Wind Pressure Humidity
    00:00 +17°C° 0 mm 2 mps 753 mmHg 92%
    01:00 +16°C° 0 mm 2 mps 753 mmHg 94%
    02:00 +16°C° 0 mm 2 mps 753 mmHg 95%
    03:00 +15°C° 0 mm 2 mps 753 mmHg 95%
    04:00 +15°C° 0 mm 2 mps 753 mmHg 94%
    05:00 +15°C° 0 mm 2 mps 753 mmHg 94%
    06:00 +16°C° 0 mm 2 mps 753 mmHg 88%
    07:00 +18°C° 0 mm 2 mps 753 mmHg 83%
    08:00 +19°C° 0 mm 2 mps 753 mmHg 77%
    09:00 +21°C° 0 mm 2 mps 753 mmHg 72%
    10:00 +23°C° 0 mm 2 mps 753 mmHg 68%
    11:00 +24°C° 0 mm 2 mps 753 mmHg 63%
    12:00 +25°C° 0 mm 2 mps 753 mmHg 61%
    13:00 +25°C° 0 mm 2 mps 753 mmHg 59%
    14:00 +26°C° 0 mm 2 mps 753 mmHg 57%
    15:00 +26°C° 0 mm 2 mps 752 mmHg 57%
    16:00 +26°C° 0 mm 2 mps 752 mmHg 57%
    17:00 +26°C° 0 mm 2 mps 752 mmHg 58%
    18:00 +25°C° 0 mm 2 mps 752 mmHg 64%
    19:00 +23°C° 0 mm 2 mps 751 mmHg 71%
    20:00 +21°C° 0 mm 2 mps 751 mmHg 77%
    21:00 +20°C° 0 mm 2 mps 751 mmHg 80%
    22:00 +19°C° 0 mm 2 mps 751 mmHg 84%
    23:00 +18°C° 0 mm 2 mps 752 mmHg 87%

    Tomorrow, 19 June, Wednesday

    Time Temperature Precipitation Wind Pressure Humidity
    00:00 +17°C° 0 mm 2 mps 751 mmHg 88%
    01:00 +17°C° 0 mm 2 mps 751 mmHg 90%
    02:00 +17°C° 0 mm 2 mps 751 mmHg 92%
    03:00 +16°C° 0 mm 2 mps 751 mmHg 92%
    04:00 +16°C° 0 mm 3 mps 751 mmHg 92%
    05:00 +16°C° 0 mm 3 mps 751 mmHg 92%
    06:00 +17°C° 0 mm 3 mps 751 mmHg 86%
    07:00 +19°C° 0 mm 3 mps 751 mmHg 80%
    08:00 +20°C° 0 mm 4 mps 751 mmHg 74%
    09:00 +21°C° 0 mm 4 mps 750 mmHg 72%
    10:00 +22°C° 0 mm 4 mps 750 mmHg 70%
    11:00 +25°C° 0 mm 4 mps 750 mmHg 68%
    12:00 +26°C° 0 mm 4 mps 750 mmHg 66%
    13:00 +26°C° 0 mm 4 mps 749 mmHg 65%
    14:00 +27°C° 0 mm 5 mps 749 mmHg 63%
    15:00 +27°C° 0.1 mm 5 mps 749 mmHg 65%
    16:00 +27°C° 0.1 mm 5 mps 748 mmHg 66%
    17:00 +27°C° 0.1 mm 5 mps 748 mmHg 68%
    18:00 +26°C° 0.1 mm 5 mps 748 mmHg 73%
    19:00 +25°C° 0.1 mm 4 mps 747 mmHg 77%
    20:00 +23°C° 0.1 mm 4 mps 747 mmHg 82%
    21:00 +22°C° 0.2 mm 3 mps 747 mmHg 85%
    22:00 +21°C° 0.2 mm 3 mps 747 mmHg 88%
    23:00 +20°C° 0.2 mm 3 mps 747 mmHg 91%

    Day after tomorrow, 20 June, Thursday

    Time Temperature Precipitation Wind Pressure Humidity
    00:00 +20°C° 0.1 mm 3 mps 747 mmHg 93%
    01:00 +20°C° 0.1 mm 3 mps 747 mmHg 94%
    02:00 +19°C° 0.1 mm 3 mps 747 mmHg 96%
    03:00 +19°C° 0.3 mm 3 mps 747 mmHg 96%
    04:00 +19°C° 0.3 mm 3 mps 746 mmHg 96%
    05:00 +19°C° 0.3 mm 3 mps 746 mmHg 97%
    06:00 +20°C° 0 mm 3 mps 746 mmHg 96%
    07:00 +20°C° 0 mm 2 mps 746 mmHg 94%
    08:00 +21°C° 0 mm 2 mps 746 mmHg 93%
    09:00 +23°C° 0 mm 2 mps 746 mmHg 87%
    10:00 +25°C° 0 mm 2 mps 747 mmHg 81%
    11:00 +26°C° 0 mm 2 mps 747 mmHg 75%
    12:00 +27°C° 1.8 mm 2 mps 746 mmHg 72%
    13:00 +27°C° 1.8 mm 2 mps 746 mmHg 70%
    14:00 +28°C° 1.8 mm 2 mps 746 mmHg 67%
    15:00 +28°C° 0 mm 2 mps 746 mmHg 64%
    16:00 +29°C° 0 mm 1 mps 746 mmHg 60%
    17:00 +29°C° 0 mm 1 mps 746 mmHg 56%
    18:00 +28°C° 0 mm 1 mps 746 mmHg 62%
    19:00 +27°C° 0 mm 1 mps 746 mmHg 67%
    20:00 +26°C° 0 mm 1 mps 746 mmHg 73%
    21:00 +25°C° 0.6 mm 1 mps 746 mmHg 77%
    22:00 +24°C° 0.6 mm 1 mps 746 mmHg 80%
    23:00 +22°C° 0.6 mm 1 mps 746 mmHg 84%

    21 June, Friday

    Time Temperature Precipitation Wind Pressure Humidity
    00:00 +22°C° 0.1 mm 1 mps 746 mmHg 86%
    01:00 +22°C° 0.1 mm 1 mps 746 mmHg 88%
    02:00 +21°C° 0.1 mm 1 mps 746 mmHg 90%
    03:00 +21°C° 0 mm 1 mps 746 mmHg 90%
    04:00 +21°C° 0 mm 1 mps 746 mmHg 91%
    05:00 +21°C° 0 mm 1 mps 746 mmHg 91%
    06:00 +23°C° 0 mm 1 mps 746 mmHg 86%
    07:00 +24°C° 0 mm 1 mps 747 mmHg 80%
    08:00 +26°C° 0 mm 2 mps 747 mmHg 75%
    09:00 +27°C° 0.1 mm 2 mps 747 mmHg 70%
    10:00 +29°C° 0.1 mm 2 mps 747 mmHg 65%
    11:00 +30°C° 0.1 mm 3 mps 747 mmHg 61%
    12:00 +30°C° 1.4 mm 3 mps 747 mmHg 60%
    13:00 +30°C° 1.4 mm 3 mps 746 mmHg 60%
    14:00 +31°C° 1.4 mm 3 mps 746 mmHg 60%
    15:00 +31°C° 0.3 mm 3 mps 746 mmHg 60%
    16:00 +31°C° 0.3 mm 3 mps 746 mmHg 61%
    17:00 +31°C° 0.3 mm 3 mps 745 mmHg 61%
    18:00 +29°C° 0.3 mm 3 mps 746 mmHg 67%
    19:00 +28°C° 0.3 mm 2 mps 746 mmHg 72%
    20:00 +27°C° 0.3 mm 1 mps 746 mmHg 78%
    21:00 +25°C° 0.1 mm 2 mps 746 mmHg 81%
    22:00 +24°C° 0.1 mm 2 mps 746 mmHg 84%
    23:00 +23°C° 0.1 mm 2 mps 746 mmHg 87%

    22 June, Saturday

    Time Temperature Precipitation Wind Pressure Humidity
    00:00 +23°C° 0.4 mm 2 mps 746 mmHg 89%
    01:00 +21°C° 0.4 mm 2 mps 746 mmHg 91%
    02:00 +21°C° 0.4 mm 1 mps 746 mmHg 93%
    03:00 +20°C° 0 mm 2 mps 746 mmHg 94%
    04:00 +20°C° 0 mm 3 mps 747 mmHg 95%
    05:00 +20°C° 0 mm 4 mps 747 mmHg 96%
    06:00 +20°C° 0 mm 4 mps 747 mmHg 94%
    07:00 +20°C° 0 mm 4 mps 748 mmHg 93%
    08:00 +20°C° 0 mm 4 mps 748 mmHg 92%
    09:00 +20°C° 0 mm 4 mps 749 mmHg 88%
    10:00 +21°C° 0 mm 4 mps 749 mmHg 85%
    11:00 +21°C° 0 mm 4 mps 749 mmHg 82%
    12:00 +22°C° 0 mm 4 mps 749 mmHg 78%
    13:00 +23°C° 0 mm 5 mps 750 mmHg 74%
    14:00 +25°C° 0 mm 5 mps 750 mmHg 70%
    15:00 +25°C° 0 mm 5 mps 750 mmHg 71%
    16:00 +25°C° 0 mm 5 mps 750 mmHg 72%
    17:00 +23°C° 0 mm 4 mps 750 mmHg 73%
    18:00 +23°C° 0 mm 4 mps 750 mmHg 76%
    19:00 +22°C° 0 mm 3 mps 750 mmHg 80%
    20:00 +21°C° 0 mm 2 mps 750 mmHg 83%
    21:00 +20°C° 0 mm 3 mps 751 mmHg 85%
    22:00 +19°C° 0 mm 3 mps 751 mmHg 86%
    23:00 +18°C° 0 mm 3 mps 751 mmHg 88%

    23 June, Sunday

    Time Temperature Precipitation Wind Pressure Humidity
    00:00 +18°C° 0 mm 3 mps 751 mmHg 89%
    01:00 +17°C° 0 mm 3 mps 751 mmHg 91%
    02:00 +17°C° 0 mm 4 mps 751 mmHg 92%
    03:00 +17°C° 0 mm 4 mps 751 mmHg 91%
    04:00 +15°C° 0 mm 4 mps 751 mmHg 90%
    05:00 +15°C° 0 mm 4 mps 751 mmHg 89%
    06:00 +17°C° 0 mm 4 mps 751 mmHg 87%
    07:00 +18°C° 0 mm 4 mps 751 mmHg 85%
    08:00 +19°C° 0 mm 4 mps 751 mmHg 84%
    09:00 +20°C° 0 mm 4 mps 751 mmHg 81%
    10:00 +21°C° 0 mm 3 mps 751 mmHg 78%
    11:00 +22°C° 0 mm 3 mps 751 mmHg 76%
    12:00 +22°C° 0.3 mm 3 mps 751 mmHg 77%
    13:00 +22°C° 0.3 mm 3 mps 751 mmHg 77%
    14:00 +22°C° 0.3 mm 3 mps 751 mmHg 78%
    15:00 +22°C° 0.3 mm 3 mps 751 mmHg 77%
    16:00 +22°C° 0.3 mm 3 mps 750 mmHg 75%
    17:00 +24°C° 0.3 mm 3 mps 750 mmHg 74%
    18:00 +22°C° 0.1 mm 3 mps 750 mmHg 78%
    19:00 +21°C° 0.1 mm 2 mps 750 mmHg 82%
    20:00 +20°C° 0.1 mm 2 mps 750 mmHg 87%
    21:00 +19°C° 0 mm 2 mps 751 mmHg 89%
    22:00 +18°C° 0 mm 2 mps 751 mmHg 92%
    23:00 +18°C° 0 mm 1 mps 751 mmHg 94%
    Show more